Johns Riffle, Oregon, United States
Lat: 42.72N, Lon: 123.86W
Wx Zone: ORZ024
Local Info
Past Weather Observations for Today

NOTE: This archive is for the closest National Weather Service station to Johns Riffle. Information may differ from the station used for current weather conditions.

Click here for Long-term Archive

Time Weather Temperature Dewpoint Humidity Pressure Winds Precip Visibility
22:29
Overcast
Light Rain
48°F / 9°C 48°F / 9°C 100% 29.86 in
(1011 mb)
S 21.9 mph
(S 35 kph)
0.03 in
(0.76 mm)
4SM
22:24
Overcast
Rain
48°F / 9°C 48°F / 9°C 100% 29.86 in
(1011 mb)
SSE 19.6 mph
(SSE 32 kph)
0.02 in
(0.51 mm)
3SM
21:56
Overcast
Light Rain
48°F / 9°C 48°F / 9°C 100% 29.83 in
(1010 mb)
S 24.2 mph
(S 39 kph)
0.02 in
(0.51 mm)
10SM
21:41
Overcast
Fog And Mist
48°F / 9°C 48°F / 9°C 100% 29.86 in
(1011 mb)
S 19.6 mph
(S 32 kph)
0.02 in
(0.51 mm)
6SM
21:33
Overcast
Light Rain
48°F / 9°C 48°F / 9°C 100% 29.86 in
(1011 mb)
S 18.4 mph
(S 30 kph)
0.02 in
(0.51 mm)
2SM
21:31
Overcast
Light Rain
48°F / 9°C 48°F / 9°C 100% 29.86 in
(1011 mb)
S 17.3 mph
(S 28 kph)
0.02 in
(0.51 mm)
1 1/4SM
21:20
Mostly Cloudy
Light Rain
48°F / 9°C 48°F / 9°C 100% 29.86 in
(1011 mb)
SSE 17.3 mph
(SSE 28 kph)
0.01 in
(0.25 mm)
1/2SM
21:16
Obscured
Light Rain
48°F / 9°C 48°F / 9°C 100% 29.86 in
(1011 mb)
SSE 17.3 mph
(SSE 28 kph)
0.01 in
(0.25 mm)
1/4SM
20:56
Overcast
Fog And Mist
48°F / 9°C 48°F / 9°C 100% 29.86 in
(1011 mb)
SSE 19.6 mph
(SSE 32 kph)
0.01 in
(0.25 mm)
3/4SM
20:53
Overcast
Fog And Mist
48°F / 9°C 48°F / 9°C 100% 29.86 in
(1011 mb)
S 20.7 mph
(S 33 kph)
0.01 in
(0.25 mm)
1SM
20:51
Overcast
Fog And Mist
48°F / 9°C 48°F / 9°C 100% 29.86 in
(1011 mb)
SSE 21.9 mph
(SSE 35 kph)
0.01 in
(0.25 mm)
2SM
20:49
Overcast
Fog And Mist
48°F / 9°C 48°F / 9°C 100% 29.86 in
(1011 mb)
S 17.3 mph
(S 28 kph)
0.01 in
(0.25 mm)
3SM
20:47
Overcast
Fog And Mist
48°F / 9°C 48°F / 9°C 100% 29.86 in
(1011 mb)
SSE 21.9 mph
(SSE 35 kph)
0.01 in
(0.25 mm)
2SM
20:45
Overcast
Fog And Mist
48°F / 9°C 48°F / 9°C 100% 29.86 in
(1011 mb)
SSE 23 mph
(SSE 37 kph)
0.01 in
(0.25 mm)
1 1/4SM
20:37
Overcast
Light Rain
48°F / 9°C 48°F / 9°C 100% 29.86 in
(1011 mb)
S 20.7 mph
(S 33 kph)
0.01 in
(0.25 mm)
1 1/2SM
20:29
Overcast
Fog
48°F / 9°C 48°F / 9°C 100% 29.86 in
(1011 mb)
SSE 21.9 mph
(SSE 35 kph)
0.01 in
(0.25 mm)
1/2SM
19:56
Obscured
Rain
48°F / 9°C 48°F / 9°C 100% 29.86 in
(1011 mb)
S 23 mph
(S 37 kph)
0.05 in
(1.27 mm)
1/4SM
19:53
Obscured
Light Rain
48°F / 9°C 48°F / 9°C 100% 29.86 in
(1011 mb)
SSE 18.4 mph
(SSE 30 kph)
0.04 in
(1.02 mm)
1/4SM
19:43
Obscured
Fog
48°F / 9°C 48°F / 9°C 100% 29.86 in
(1011 mb)
SSE 16.1 mph
(SSE 26 kph)
0.03 in
(0.76 mm)
1/4SM
18:56
Obscured
Light Rain
48°F / 9°C 48°F / 9°C 100% 29.89 in
(1012 mb)
SSE 15 mph
(SSE 24 kph)
0.09 in
(2.29 mm)
M1/4SM
17:56
Obscured
Rain
48°F / 9°C 48°F / 9°C 100% 29.89 in
(1012 mb)
SW 21.9 mph
(SW 35 kph)
0.08 in
(2.03 mm)
M1/4SM
16:56
Obscured
Light Rain
48°F / 9°C 48°F / 9°C 100% 29.86 in
(1011 mb)
SSE 19.6 mph
(SSE 32 kph)
0.04 in
(1.02 mm)
1/4SM
16:24
Overcast
Light Rain
48°F / 9°C 48°F / 9°C 100% 29.86 in
(1011 mb)
SW 19.6 mph
(SW 32 kph)
0.01 in
(0.25 mm)
1/4SM
16:17
Overcast
Light Rain
48°F / 9°C 48°F / 9°C 100% 29.86 in
(1011 mb)
SW 17.3 mph
(SW 28 kph)
0.00 in
(0.00 mm)
1/2SM
16:15
Overcast
Light Rain
48°F / 9°C 48°F / 9°C 100% 29.89 in
(1012 mb)
SW 19.6 mph
(SW 32 kph)
0.00 in
(0.00 mm)
1SM
15:56
Overcast
Light Rain
48°F / 9°C 46°F / 8°C 94% 29.86 in
(1011 mb)
SW 21.9 mph
(SW 35 kph)
0.00 in
(0.00 mm)
10SM
14:56
Overcast
48°F / 9°C 48°F / 9°C 100% 29.89 in
(1012 mb)
S 21.9 mph
(S 35 kph)
0.00 in
(0.00 mm)
10SM
14:11
Overcast
Light Rain
48°F / 9°C 48°F / 9°C 100% 29.86 in
(1011 mb)
S 25.3 mph
(S 41 kph)
0.00 in
(0.00 mm)
10SM
13:58
Overcast
Fog And Mist
48°F / 9°C 48°F / 9°C 100% 29.86 in
(1011 mb)
S 21.9 mph
(S 35 kph)
- 4SM
13:56
Overcast
Fog And Mist
48°F / 9°C 48°F / 9°C 100% 29.86 in
(1011 mb)
S 20.7 mph
(S 33 kph)
0.01 in
(0.25 mm)
1 1/2SM
13:54
Overcast
Fog And Mist
48°F / 9°C 48°F / 9°C 100% 29.86 in
(1011 mb)
S 24.2 mph
(S 39 kph)
0.01 in
(0.25 mm)
1SM
13:38
Obscured
Light Rain
48°F / 9°C 48°F / 9°C 100% 29.86 in
(1011 mb)
S 19.6 mph
(S 32 kph)
0.00 in
(0.00 mm)
1/4SM
13:25
Obscured
Fog
48°F / 9°C 48°F / 9°C 100% 29.86 in
(1011 mb)
S 23 mph
(S 37 kph)
0.00 in
(0.00 mm)
M1/4SM
12:56
Obscured
Light Rain
48°F / 9°C 48°F / 9°C 100% 29.89 in
(1012 mb)
S 21.9 mph
(S 35 kph)
0.01 in
(0.25 mm)
1/4SM
11:56
Obscured
Fog
46°F / 8°C 46°F / 8°C 100% 29.92 in
(1013 mb)
S 18.4 mph
(S 30 kph)
0.03 in
(0.76 mm)
1/4SM
10:56
Overcast
Light Rain
46°F / 8°C 46°F / 8°C 100% 29.95 in
(1014 mb)
S 17.3 mph
(S 28 kph)
0.03 in
(0.76 mm)
M1/4SM
10:44
Overcast
Fog
46°F / 8°C 46°F / 8°C 100% 29.95 in
(1014 mb)
S 13.8 mph
(S 22 kph)
0.02 in
(0.51 mm)
M1/4SM
10:22
Overcast
Light Rain
46°F / 8°C 46°F / 8°C 100% 29.95 in
(1014 mb)
S 12.7 mph
(S 20 kph)
0.01 in
(0.25 mm)
1/4SM
10:05
Overcast
Light Rain
46°F / 8°C 46°F / 8°C 100% 29.95 in
(1014 mb)
S 15 mph
(S 24 kph)
0.00 in
(0.00 mm)
1/2SM
09:56
Overcast
Light Rain
46°F / 8°C 46°F / 8°C 100% 29.95 in
(1014 mb)
SSE 13.8 mph
(SSE 22 kph)
0.01 in
(0.25 mm)
1/4SM
09:44
Obscured
Fog
46°F / 8°C 46°F / 8°C 100% 29.95 in
(1014 mb)
S 13.8 mph
(S 22 kph)
- M1/4SM
09:09
Overcast
Fog
45°F / 7°C 45°F / 7°C 100% 29.95 in
(1014 mb)
SSE 13.8 mph
(SSE 22 kph)
- 1/4SM
09:02
Overcast
Fog
45°F / 7°C 45°F / 7°C 100% 29.95 in
(1014 mb)
S 12.7 mph
(S 20 kph)
- 1/2SM
08:56
Overcast
Fog And Mist
45°F / 7°C 45°F / 7°C 100% 29.95 in
(1014 mb)
S 16.1 mph
(S 26 kph)
0.01 in
(0.25 mm)
4SM
08:30
Overcast
Fog And Mist
45°F / 7°C 45°F / 7°C 100% 29.95 in
(1014 mb)
S 16.1 mph
(S 26 kph)
0.01 in
(0.25 mm)
3SM
08:27
Overcast
Fog And Mist
45°F / 7°C 45°F / 7°C 100% 29.95 in
(1014 mb)
S 17.3 mph
(S 28 kph)
0.01 in
(0.25 mm)
1 3/4SM
08:25
Overcast
Fog And Mist
45°F / 7°C 45°F / 7°C 100% 29.95 in
(1014 mb)
S 17.3 mph
(S 28 kph)
0.01 in
(0.25 mm)
1SM
08:08
Overcast
Fog
45°F / 7°C 45°F / 7°C 100% 29.95 in
(1014 mb)
S 16.1 mph
(S 26 kph)
- 1/4SM
08:01
Overcast
Fog And Mist
45°F / 7°C 45°F / 7°C 100% 29.95 in
(1014 mb)
S 16.1 mph
(S 26 kph)
- 3/4SM
07:56
Overcast
Fog And Mist
45°F / 7°C 45°F / 7°C 100% 29.95 in
(1014 mb)
S 17.3 mph
(S 28 kph)
0.01 in
(0.25 mm)
1 3/4SM
07:52
Obscured
Fog And Mist
45°F / 7°C 45°F / 7°C 100% 29.95 in
(1014 mb)
S 17.3 mph
(S 28 kph)
0.01 in
(0.25 mm)
1SM
07:19
Overcast
Fog
45°F / 7°C 45°F / 7°C 100% 29.95 in
(1014 mb)
S 13.8 mph
(S 22 kph)
- 1/4SM
07:16
Overcast
Fog And Mist
45°F / 7°C 45°F / 7°C 100% 29.95 in
(1014 mb)
S 16.1 mph
(S 26 kph)
- 1SM
07:11
Overcast
45°F / 7°C 45°F / 7°C 100% 29.95 in
(1014 mb)
S 17.3 mph
(S 28 kph)
- 8SM
06:56
Overcast
45°F / 7°C 43°F / 6°C 93% 29.95 in
(1014 mb)
S 13.8 mph
(S 22 kph)
- 9SM
05:56
Overcast
45°F / 7°C 43°F / 6°C 93% 29.95 in
(1014 mb)
S 13.8 mph
(S 22 kph)
- 10SM
04:56
Overcast
45°F / 7°C 43°F / 6°C 93% 29.95 in
(1014 mb)
S 13.8 mph
(S 22 kph)
0.01 in
(0.25 mm)
10SM
04:07
Overcast
45°F / 7°C 43°F / 6°C 93% 29.95 in
(1014 mb)
SSE 10.4 mph
(SSE 17 kph)
- 10SM
03:56
Overcast
45°F / 7°C 43°F / 6°C 93% 29.95 in
(1014 mb)
S 12.7 mph
(S 20 kph)
- 10SM
02:56
Overcast
45°F / 7°C 43°F / 6°C 93% 29.95 in
(1014 mb)
S 12.7 mph
(S 20 kph)
- 10SM
01:56
Overcast
45°F / 7°C 43°F / 6°C 93% 29.98 in
(1015 mb)
S 16.1 mph
(S 26 kph)
- 10SM
00:56
Overcast
45°F / 7°C 43°F / 6°C 93% 29.98 in
(1015 mb)
S 18.4 mph
(S 30 kph)
- 10SM
Time Weather Temperature Dewpoint Humidity Pressure Winds Precip Visibility


Weather for websites

WeatherForYou.com, LLC is not responsible for any damages or problems caused by this service. Current weather conditions are obtained from the closest station including government and personal stations which may have varying degrees of accuracy. Weather forecasts are derived from the NOAA NDFD. Like all things, this site belongs to Jesus Christ... He just trusts me to maintain it. If you have any questions or comments email webmaster@weatherforyou.com

Copyright © 2014, WeatherForYou.com LLC. All rights reserved.